Regional Weather Roundup
Issued by NWS

Home | Current Version | Previous Version | Text Only | Print | Product List | Glossary Off
Versions: 1 2 3 4 5 6 7 8 9 10 11 12 13 14 15 16 17 18 19 20 21 22 23 24 25 26 27 28 29 30 31 32 33 34 35 36 37 38 39 40 41 42 43 44 45 46 47 48 49

924
ASUS45 KTFX 040710
RWRMT
MONTANA REGIONAL WEATHER ROUNDUP
NATIONAL WEATHER SERVICE GREAT FALLS MT
100 AM MDT WED MAY 04 2016

NOTE: "FAIR" INDICATES FEW OR NO CLOUDS BELOW 12000 FEET WITH NO
SIGNIFICANT WEATHER AND/OR OBSTRUCTIONS TO VISIBILITY.

MTZ001>007-043-040800-
WEST OF THE DIVIDE

CITY           SKY/WX    TMP DP  RH WIND       PRES   REMARKS
KALISPELL      CLEAR     48  44  86 NW6       29.99S
MISSOULA       CLEAR     54  38  54 CALM      30.02S
BUTTE          CLEAR     51  28  41 NE3       30.15R
MULLAN PASS    CLEAR     54  31  41 CALM      30.14S
$$

MTZ008-052>055-040800-
SOUTHWEST MONTANA

CITY           SKY/WX    TMP DP  RH WIND       PRES   REMARKS
BOZEMAN        CLEAR     46  34  62 SE12      30.12S
DILLON         CLEAR     48  28  46 SE6       30.15R
ENNIS          CLEAR     50  25  37 S7        30.22S
$$

MTZ009-010-012-014-046-048-049-054-040800-
EAST SLOPES AND CENTRAL MONTANA

CITY           SKY/WX    TMP DP  RH WIND       PRES   REMARKS
CUT BANK       CLEAR     55  34  45 SW5       30.03S
GREAT FALLS    CLEAR     55  39  54 S12       30.02S
MALMSTROM AFB  CLEAR     51  41  70 SE9       30.02R
HELENA         CLEAR     56  34  43 CALM      30.06R
$$

MTZ011-013-016-021-045-047-050-051-040800-
NORTH CENTRAL MONTANA

CITY           SKY/WX    TMP DP  RH WIND       PRES   REMARKS
HAVRE          CLEAR     62  40  44 CALM      29.99S
LEWISTOWN      CLEAR     53  38  56 SE5       30.08S
N BAR RANCH      N/A     48  37  66 NW7       30.14F
$$

MTZ017>020-022>027-061-062-040800-
NORTHEAST MONTANA

CITY           SKY/WX    TMP DP  RH WIND       PRES   REMARKS
GLASGOW        CLEAR     54  39  57 SE7       30.03S
JORDAN           N/A     49  44  83 CALM      30.06R
SIDNEY         CLEAR     48  39  71 CALM      30.07R
WOLF POINT     CLEAR     50  42  74 NW5       30.04S
$$

MTZ028>42-056>058-040800-
SOUTHCENTRAL AND SOUTHEAST MONTANA

CITY           SKY/WX    TMP DP  RH WIND       PRES   REMARKS
BAKER          CLEAR     50  39  66 SE6       30.11S
BILLINGS       CLEAR     60  37  42 S7        30.09S
LIVINGSTON     CLEAR     45  33  63 VRB3      30.13R
MILES CITY     CLEAR     59  41  51 SE8       30.07S
$$

REGIONAL REPORTS...DAKOTAS

CITY           SKY/WX    TMP DP  RH WIND       PRES   REMARKS
WILLISTON      CLEAR     48  39  71 W3        30.06S
MINOT          CLEAR     51  28  41 SE5       30.07R
DICKINSON      PTCLDY    48  35  60 S6        30.08R
BEACH            N/A     46  39  76 SE7       30.12S
CROSBY           N/A     50  39  66 S10       30.07S
TIOGA            N/A     45  34  65 CALM      30.13S
WATFORD CITY     N/A     46  37  71 CALM      30.07S
BISMARCK       CLEAR     44  31  60 CALM      30.10R
GRAND FORKS    CLEAR     38  30  73 NW9       30.03R WCI  31
FARGO          CLEAR     44  29  55 N10       30.01R
BUFFALO SD       N/A     54  38  54 W6        30.06S
RAPID CITY     CLEAR     52  38  58 N10       30.12R
$$

REGIONAL REPORTS...WYOMING/IDAHO/WASHINGTON

CITY           SKY/WX    TMP DP  RH WIND       PRES   REMARKS
GILLETTE       CLEAR     43  38  82 S8        30.17R
SHERIDAN       CLEAR     44  37  76 W3        30.13S
BUFFALO WY     CLEAR     52  36  54 CALM      30.19S
CODY           CLEAR     54  32  43 SW8       30.17S
YELLOWSTONE LA   N/A     30  24  78 CALM      30.35R
IDAHO FALLS    CLEAR     45  35  68 N3        30.18S
SALMON         CLEAR     48  30  49 CALM      30.10R
BOISE          PTCLDY    66  33  29 SE7       30.00R
SPOKANE        PTCLDY    62  38  40 SE6       29.95S
$$

REGIONAL REPORTS...ALBERTA

CITY           SKY/WX    TMP DP  RH WIND       PRES   REMARKS
EDMONTON       PTCLDY    57  37  47 S7        29.81R
LETHBRIDGE     CLEAR     52  36  54 SW7       29.96S
MEDICINE HAT   CLEAR     61  41  48 SW14      29.94R
$$

REGIONAL REPORTS...SASKATCHEWAN

CITY           SKY/WX    TMP DP  RH WIND       PRES   REMARKS
SWIFT CURRENT  CLEAR     55  41  58 SW15      29.99S
REGINA         CLEAR     57  36  44 S13       30.01S
SASKATOON      CLEAR     57  41  54 S9        29.93S
$$




USA.gov is the U.S. government's official web portal to all federal, state and local government web resources and services.